Regional Weather Roundup
Issued by NWS

Home | Current Version | Previous Version | Graphics & Text | Print | Product List | Glossary On
Versions: 1 2 3 4 5 6 7 8 9 10 11 12 13 14 15 16 17 18 19 20 21 22 23 24 25 26 27 28 29 30 31 32 33 34 35 36 37 38 39 40 41 42 43 44 45 46 47 48 49 50
000
ASUS43 KMKX 061611
RWRWI

WISCONSIN REGIONAL WEATHER ROUNDUP
NATIONAL WEATHER SERVICE MILWAUKEE/SULLIVAN WI
1100 AM CDT FRI MAY 06 2016

NOTE: "FAIR" INDICATES FEW OR NO CLOUDS BELOW 12,000 FEET WITH NO
SIGNIFICANT WEATHER AND/OR OBSTRUCTIONS TO VISIBILITY.

WIZ001-002-006>008-014>016-023>028-061700-
NORTHWEST WISCONSIN

CITY           SKY/WX    TMP DP  RH WIND       PRES   REMARKS
SUPERIOR ARPT  SUNNY     86  47  26 SW13      29.73F HX  83
ASHLAND        SUNNY     86  46  24 W9        29.75F HX  83
HAYWARD        SUNNY     81  43  26 SW9       29.80F
SIREN          SUNNY     79  45  29 SW7       29.80F
CUMBERLAND     SUNNY     79  43  27 SW7       29.83F
RICE LAKE      SUNNY     79  42  27 W6        29.84F
CHETEK         SUNNY     81  47  30 W8        29.83F HX  80
LADYSMITH      SUNNY     79  46  30 W7        29.85F
EAU CLAIRE     SUNNY     80  45  28 W9        29.84F
MENOMONIE      SUNNY     82  47  29 SW9       29.84F HX  80
NEW RICHMOND   SUNNY     78  47  33 SW9       29.84S
OSCEOLA        SUNNY     79  49  34 SW9       29.84F
$$

WIZ003>005-009-010-017-018-061700-
NORTH CENTRAL WISCONSIN

CITY           SKY/WX    TMP DP  RH WIND       PRES   REMARKS
MANITOWISH WTR SUNNY     80  43  26 W9        29.81F
ARBOR VITAE    SUNNY     77  42  27 W8        29.82F
WOODRUFF       SUNNY     77  42  27 W8        29.82F
RHINELANDER    SUNNY     79  41  25 W12       29.84F
EAGLE RIVER    SUNNY     76  37  24 N7G16     29.82F
LAND O LAKES   MOSUNNY   77  40  26 W6        29.83F
PHILLIPS       SUNNY     77  43  29 W6        29.83F
TOMAHAWK       SUNNY     78  39  24 W8        29.84F
MEDFORD        SUNNY     74  45  35 W8        29.86F
MERRILL        SUNNY     77  46  33 NW7       29.85F
$$

WIZ029-030-035-036-043>047-061700-
CENTRAL WISCONSIN

CITY           SKY/WX    TMP DP  RH WIND       PRES   REMARKS
WAUSAU         SUNNY     74  45  35 W9        29.84F
MOSINEE        MOSUNNY   68  46  45 SW5       29.88F
MARSHFIELD     SUNNY     75  46  35 VRB7      29.87S
STEVENS POINT  MOSUNNY   67  43  42 W6        29.88F
WAUPACA        MOSUNNY   72  44  36 S6        29.88F
WAUTOMA        PTSUNNY   69  46  43 VRB5      29.90F
WISC RAPIDS    SUNNY     76  41  28 W6        29.89F
CAMP DOUGLAS   MOSUNNY   73  48  40 SW5       29.89F
$$

WIZ011>013-019>022-031-037>040-048>050-061700-
NORTHEAST WISCONSIN

CITY           SKY/WX    TMP DP  RH WIND       PRES   REMARKS
ANTIGO         SUNNY     72  45  38 W5        29.86F
SHAWANO        SUNNY     74  44  34 W8        29.86S
OCONTO         SUNNY     71  45  40 S9        29.83F
STURGEON BAY   SUNNY     68  46  45 S12       29.87F
GREEN BAY      SUNNY     70  46  42 SW9       29.85F
MANITOWOC      SUNNY     66  46  48 MISG      29.88F
APPLETON       MOSUNNY   70  43  37 SW9       29.86F
CLINTONVILLE   SUNNY     73  41  31 W9        29.86S
OSHKOSH        SUNNY     71  46  40 S8        29.88F
$$

WIZ032>034-041-042-053>061-061700-
SOUTHWEST WISCONSIN

CITY           SKY/WX    TMP DP  RH WIND       PRES   REMARKS
LA CROSSE      SUNNY     74  48  39 S7        29.88F
SPARTA         SUNNY     74  45  35 SW3       29.90S
VIROQUA        SUNNY     74  42  32 W7        29.92F
BOSCOBEL       SUNNY     72  45  37 SW7       29.92F
PRAIRIE DU CHI SUNNY     73  43  34 CALM      29.92F
PLATTEVILLE    SUNNY     69  45  41 SW12      29.95F
$$

WIZ056-057-062-063-064-067-068-061700-
SOUTH CENTRAL WISCONSIN

CITY           SKY/WX    TMP DP  RH WIND       PRES   REMARKS
REEDSBURG      SUNNY     70  47  43 SW7       29.91F
BARABOO/DELLS  PTSUNNY   69  40  34 SW7       29.91F
LONE ROCK      SUNNY     71  49  45 E3        29.93F
MINERAL POINT  SUNNY     70  45  40 SW6       29.95S
MADISON        MOSUNNY   69  45  41 SW6       29.91F
MIDDLETON      SUNNY     69  48  46 W8        29.93S
WATERTOWN      SUNNY     71  45  39 SW6       29.90F
MONROE         SUNNY     70  43  37 SW9       29.94F
JANESVILLE     MOSUNNY   73  45  35 W14       29.93F
$$

WIZ051-052-058>065-066-070>072-061700-
SOUTHEAST WISCONSIN

CITY           SKY/WX    TMP DP  RH WIND       PRES   REMARKS
MILWAUKEE      MOSUNNY   72  40  31 W10       29.92F
WAUKESHA       SUNNY     70  39  32 SW10      29.93F
MILWAUKEE/TIMM NOT AVBL
RACINE         SUNNY     71  38  29 W13       29.93F
BURLINGTON     SUNNY     71  39  30 SW13      29.92F
KENOSHA        MOSUNNY   70  42  36 SW13      29.93F
FOND DU LAC    MOSUNNY   70  44  39 SW10      29.89F
SHEBOYGAN      SUNNY     73  41  31 SW12      29.89F
WEST BEND      SUNNY     70  39  32 W6        29.91S
JUNEAU         MOSUNNY   68  46  45 SW8       29.92F
$$

LSZ147-162-061700-
LAKE SUPERIOR

STATION/POSITION TIME  TEMP    WIND        PRES    WAVE
                       AIR SEA DIR/SP/G            HT/PER
                 (UTC) (F)     (DEG/KT/KT) (MB)    (FT/S)
W MID LAKE BUOY  1550   46 37  210/ 10/ 10 1007.0F   1
DEVILS ISLAND    1600   68     240/ 19/ 20 1006.0F
SAXON HARBOR     1500   80     220/  5/ 13 1007.5
$$

LMZ867-665-643>646-061700-
LAKE MICHIGAN

STATION/POSITION TIME  TEMP    WIND        PRES    WAVE
                       AIR SEA DIR/SP/G            HT/PER
                 (UTC) (F)     (DEG/KT/KT) (MB)    (FT/S)
CHAMBERS ISLAND  1500   61     190/  8/ 17 1011.2F
N MID LAKE BUOY  1550   42 39  180/ 12/ 14 1011.9F   2/ 4
NORTHPORT PIER   1500   50     150/  7/ 11 1011.5F
SISTER BAY       1519   64     150/ 11/ 14   N/A
ALGOMA LAKESHORE 1515          220/ 13/ 14   N/A
KEWAUNEE LAKESHO 1500   46     170/ 12/ 13 1011.5F
SHEBOYGAN LAKESH 1600   49     160/ 16/ 18 1012.6F
PORT WASHINGTON  1500   64     170/  8/ 13 1013.5F
S MID LAKE BUOY  1550   43 41  160/  8/  8 1014.9S   0
KENOSHA   LAKESH 1600   69     230/ 10/ 15 1013.5F
$$

TC  - TEMPERATURE IN CELSIUS
VSB - VISIBILITY IN STATUTE MILES
WCI - WIND CHILL INDEX
HX  - HEAT INDEX




USA.gov is the U.S. government's official web portal to all federal, state and local government web resources and services.